Погода в Сан-Антонио

США     29°25′33″N   98°29′28″W
темп.,
°C
ветер,
м/с
пор.,
м/с
влажн.,
%
обл.,
%
осадки,
мм/ч
давл.,
гПа
погр.,
м
15 августа, пн
пн1501:00+25вюв4108024 0.1 1013729
04:00+25вюв4980100 0.2 1013561
07:00+24юв3790100 1.5 1013410
10:00+25ююв478097 0.6 1015711
13:00+29ююв4661100 0.7 10141332
16:00+30ююв565273 0.0 10121316
19:00+32ю564655 0.0 10111461
22:00+27ю496018 0.0 1012468
16 августа, вт
вт1601:00+26ююв378287 0.0 1013387
04:00+24ююв268733 0.0 1013293
07:00+24юв239227 0.0 1013171
10:00+28ю356937 0.0 1014967
13:00+32ююв345288 0.1 10131764
16:00+35ю443715 0.0 10112295
19:00+33ююв45439 0.0 10111354
22:00+29ююв5105441 0.0 1011469
17 августа, ср
ср1701:00+27ююв4875100 0.0 1013454
04:00+25ю2684100 0.0 1014346
07:00+24ю2489100 0.0 1015219
10:00+28ююз347094 0.0 1015733
13:00+33ююз3344100 0.0 10141536
16:00+36ю323417 0.0 10122175
19:00+35ююв323429 0.0 10102164
22:00+31ю36440 0.0 1011199
18 августа, чт
чт1801:00+28ю49645 0.0 1013401
04:00+26юз367010 0.0 1013311
07:00+25юз237655 0.0 1013157
10:00+29юз226048 0.0 1014654
13:00+34ююв224034 0.0 10131590
16:00+37ююв43285 0.0 10102664
19:00+32ссв5544100 0.0 1009688
22:00+27св5862100 0.3 1012481
19 августа, пт
пт1901:00+26всв487079 0.3 1013410
04:00+24всв238640 3.5 1012212
07:00+25ююв018698 3.8 1012127
10:00+26юв1182100 0.0 1013312
13:00+27св1175100 0.0 1013310
16:00+30св225965 0.0 1010286
19:00+31ссв4649100 0.0 1010218
22:00+26всв497549 1.2 1012281